Theta_e
351 349 349 348 349 346 346 347 350 351 351 351 351 351 351 351 350 350 351 349 350 348 348 349 350 349 347 348 346 347 346 347 348 350 349 349 350 350 351 353 353 353 355 355 355 357 358 357 357 357 357 356 357 355 354 356 356 357 357 354 353 352 351 348 346 348 351 352 352 352 353 354 355 356 354 355 357 358 359 363 364 362 362 361 361
350 350 350 349 348 348 348 349 349 350 351 350 351 351 351 351 351 351 349 350 350 349 349 348 349 349 348 347 347 347 347 347 346 348 348 347 348 348 349 351 352 352 353 353 355 355 357 357 356 355 357 356 354 351 352 354 354 353 356 355 354 354 354 353 349 348 347 351 354 353 354 354 354 355 354 353 354 357 356 360 362 363 361 361 360
351 351 350 350 349 351 350 350 349 348 347 347 347 348 350 351 352 351 350 350 351 350 349 348 349 349 348 348 347 347 347 346 347 347 347 347 347 347 348 350 350 350 350 352 353 355 354 356 355 356 356 355 355 351 355 355 357 355 354 353 353 353 354 354 349 346 346 349 350 352 351 353 352 354 355 354 355 354 355 357 359 360 358 358 358
350 350 349 349 349 349 348 349 349 348 346 345 345 346 347 349 352 351 350 350 349 350 350 349 349 349 347 348 347 347 346 347 347 347 347 347 347 347 348 349 349 349 349 350 351 353 354 354 354 356 356 354 352 352 352 352 355 354 353 357 355 354 355 355 353 353 348 347 349 350 351 350 351 353 353 354 352 353 355 355 356 355 356 357 355
348 348 348 348 349 349 349 350 348 348 347 346 344 344 345 346 349 351 350 350 350 349 350 350 348 347 346 346 346 345 345 346 346 346 347 347 347 347 348 348 349 350 351 351 353 354 354 355 356 356 353 352 351 349 349 350 354 354 355 354 355 356 356 354 353 351 350 348 347 347 347 349 350 352 351 349 349 351 352 352 353 354 354 355 356
344 344 345 346 346 347 348 349 349 348 347 347 346 346 346 346 347 349 351 350 350 349 348 348 348 346 346 347 346 346 346 345 346 346 346 347 347 348 349 349 348 350 351 352 355 357 356 356 357 356 352 351 351 350 350 351 354 354 352 354 355 354 352 350 349 349 348 346 345 344 345 345 347 347 349 350 346 346 348 352 352 353 352 352 351
344 343 343 343 344 344 346 347 349 349 350 349 348 348 347 346 347 347 349 348 349 349 348 348 349 348 346 346 346 346 345 345 345 345 346 346 347 347 347 348 349 350 352 354 356 357 358 357 357 354 353 352 352 352 351 353 355 355 355 355 354 352 350 350 350 348 347 345 345 344 343 344 344 344 348 349 348 348 346 346 346 347 348 349 345
343 342 342 342 343 344 345 345 346 348 350 350 350 349 348 348 348 349 350 350 350 347 347 347 347 348 347 346 346 347 346 345 345 345 344 345 346 346 347 348 349 350 351 354 355 356 358 358 356 354 354 353 352 352 353 355 354 354 353 353 353 351 350 349 349 348 346 346 346 346 345 344 345 345 346 347 347 347 348 346 343 342 341 341 343
340 341 343 343 344 345 346 347 347 347 349 350 349 349 349 348 349 350 350 350 351 352 354 352 347 346 347 347 346 346 345 344 343 344 343 343 344 344 347 348 349 350 352 353 355 356 357 357 355 354 354 356 356 355 355 357 356 353 352 353 351 350 349 349 349 348 348 346 345 346 344 343 345 345 344 344 342 342 345 346 344 343 341 340 339
337 338 339 339 340 342 344 346 347 347 348 347 349 349 348 349 349 350 350 350 350 351 352 353 352 349 345 345 345 345 344 344 348 350 351 345 344 343 345 347 348 349 351 352 353 355 355 355 355 357 357 359 359 358 358 360 360 358 354 352 353 350 351 351 349 348 347 345 344 344 342 341 344 344 343 345 347 346 345 343 342 341 340 337 337
336 336 336 337 337 338 339 340 342 343 345 345 345 344 345 346 346 347 347 348 348 349 351 350 350 351 348 345 344 344 344 345 350 339 339 350 349 345 345 346 349 350 351 351 351 353 354 354 353 356 360 360 360 360 360 360 360 359 358 357 356 355 351 350 349 349 346 344 345 344 343 343 346 347 343 345 347 347 345 344 342 340 338 337 330
332 333 335 335 335 334 335 335 336 337 339 342 343 345 345 345 345 345 346 346 348 350 348 348 349 350 350 347 344 344 344 348 336 335 336 336 352 350 347 346 349 350 351 351 352 353 353 352 352 353 358 361 361 363 361 360 359 357 356 356 356 355 354 352 349 346 346 344 344 341 340 340 341 342 343 343 343 344 344 344 341 340 337 334 333
330 332 332 333 333 333 333 333 333 334 336 337 339 341 344 346 346 346 346 347 349 349 349 349 349 349 349 349 348 346 344 344 333 332 333 333 338 354 350 349 349 350 351 351 351 352 353 352 351 351 355 360 361 360 360 359 356 355 355 352 350 347 340 344 348 350 348 344 342 340 339 338 339 342 344 342 341 340 342 340 336 336 333 332 331
328 329 330 331 331 332 332 332 332 332 334 335 336 337 339 341 346 349 349 349 349 349 349 349 349 349 349 348 349 349 347 347 335 331 330 331 332 341 348 351 350 350 350 350 350 351 351 352 351 351 354 360 361 356 354 353 351 345 339 339 341 343 343 342 342 343 342 341 341 340 337 336 337 338 339 339 339 340 338 331 333 331 332 331 334
327 328 329 331 331 331 331 331 331 332 333 334 335 335 336 338 341 344 348 349 349 348 349 349 349 350 349 350 349 348 349 343 333 331 328 327 329 342 344 350 351 350 351 351 351 350 350 352 352 352 353 359 357 355 351 346 342 337 335 335 334 335 335 336 335 336 336 334 334 334 334 334 334 335 336 339 340 340 339 335 334 333 334 335 333
326 328 330 332 332 332 332 331 332 332 332 334 334 334 335 337 338 341 343 345 349 350 350 349 349 349 349 349 347 347 347 338 333 330 328 326 330 340 344 348 351 350 350 350 350 350 351 351 352 353 351 355 356 351 350 342 337 334 332 332 331 332 333 334 330 334 336 335 335 335 334 333 331 337 338 339 340 340 340 339 338 336 333 330 328
327 330 331 331 332 332 332 332 332 333 333 333 333 334 334 336 337 340 341 342 343 346 348 348 350 349 348 348 346 346 345 339 328 327 327 327 333 342 344 346 349 349 349 349 349 349 349 350 352 352 351 351 348 335 338 344 335 333 331 330 330 331 331 332 329 328 327 325 326 327 326 325 324 323 325 330 336 338 337 334 332 333 329 325 325
330 331 330 330 330 330 331 331 331 331 332 331 332 333 335 336 337 340 339 340 341 344 347 347 348 347 347 345 345 344 344 339 326 325 325 326 340 342 344 345 347 348 349 349 347 348 349 351 352 353 353 350 336 330 334 343 335 332 331 329 329 329 330 331 331 330 329 328 329 330 330 330 329 327 326 325 328 338 338 332 332 332 328 327 323
330 330 330 329 329 329 329 330 330 330 329 330 331 331 332 334 336 338 340 341 342 344 346 346 345 343 342 343 345 346 344 340 324 322 324 324 337 345 345 347 347 348 348 347 346 344 344 347 351 351 351 346 327 328 331 344 335 332 330 329 328 327 328 329 327 327 328 328 329 330 330 331 331 331 331 331 330 330 330 331 333 331 327 327 326
330 330 329 328 328 327 327 327 328 328 327 328 330 331 333 333 333 334 336 340 343 343 344 345 342 332 331 332 333 334 334 334 335 322 318 321 327 344 347 347 345 345 345 344 342 342 342 344 346 336 331 327 323 324 327 330 334 332 330 328 326 325 328 328 328 328 327 326 327 327 327 327 326 325 325 326 326 327 325 326 328 331 329 328 327
328 327 327 326 325 324 324 325 325 326 327 328 329 331 330 329 330 331 332 335 341 340 338 335 328 326 325 326 326 326 328 331 330 320 317 317 320 335 344 344 344 345 345 345 344 341 341 343 345 336 324 321 320 319 319 322 330 332 330 327 327 328 330 328 328 329 328 328 327 327 326 325 325 324 324 324 324 324 324 324 324 325 326 323 321
327 326 325 324 324 323 323 325 325 325 327 328 327 328 328 328 328 329 329 329 330 328 327 326 323 322 322 323 322 322 323 328 324 321 316 313 315 319 336 344 345 346 344 342 341 340 342 344 344 337 320 318 316 315 315 320 325 334 330 320 320 325 329 329 326 326 326 325 325 325 324 322 321 320 320 319 320 323 322 324 324 322 321 322 323
326 325 324 323 322 322 322 322 323 325 326 326 326 326 327 326 326 326 325 324 323 322 322 322 322 321 320 320 320 320 320 321 321 322 316 309 310 314 316 328 330 345 343 341 340 339 329 325 324 323 315 314 313 313 315 318 327 324 315 317 320 323 329 325 325 323 323 323 323 323 322 319 317 315 316 315 316 318 317 318 318 320 322 323 322
325 324 324 323 322 321 321 320 321 322 324 325 325 325 325 325 324 324 324 323 322 321 321 321 320 319 318 318 319 320 321 321 320 316 314 308 306 307 309 312 324 335 334 328 322 319 317 317 314 308 306 304 308 310 315 322 322 312 314 317 321 327 326 325 323 323 323 321 320 319 318 317 315 314 315 315 316 316 316 316 316 316 316 316 318
323 323 323 323 322 321 320 318 318 318 320 322 322 322 323 325 323 323 323 322 321 320 319 320 318 318 317 317 317 319 320 321 321 320 314 311 310 309 311 312 311 313 321 320 318 314 310 307 307 309 310 310 312 316 317 314 312 314 315 320 329 323 323 321 321 320 319 319 319 319 319 319 317 317 318 319 320 319 317 317 319 318 316 316 316
324 323 323 322 321 321 319 317 316 316 317 319 321 322 321 322 323 323 322 322 321 321 320 320 319 318 317 317 317 318 319 319 320 321 321 319 315 312 313 316 321 321 321 316 317 313 312 312 313 314 315 318 323 323 324 323 318 319 320 326 323 322 321 320 320 319 318 319 320 318 318 318 318 320 321 319 316 315 316 315 315 315 315 315 314
325 323 322 321 320 320 319 317 315 313 312 314 316 319 321 320 320 321 322 322 321 321 320 319 318 318 317 317 317 317 316 317 318 319 320 321 321 322 322 322 321 323 323 322 321 320 321 320 316 313 315 316 322 324 324 324 322 321 321 322 322 321 321 320 319 318 318 317 317 316 317 318 320 320 318 318 318 318 318 316 313 314 315 314 313
323 323 322 322 320 319 318 319 315 312 311 309 308 310 315 319 317 315 317 320 320 319 319 318 317 317 316 316 316 315 315 315 315 316 319 320 320 320 321 321 320 320 320 321 321 322 321 321 318 322 321 318 318 318 319 319 320 320 319 320 322 324 324 323 322 318 316 316 316 317 318 316 315 316 317 316 315 315 317 316 314 313 314 314 310
324 323 322 321 320 320 319 317 316 314 311 310 308 306 306 311 315 315 314 315 319 319 318 317 318 317 317 316 315 314 313 311 310 308 311 309 316 319 319 320 320 321 320 316 321 321 320 319 320 320 318 317 316 315 316 316 317 317 317 317 317 318 317 316 314 314 315 315 314 314 313 313 314 315 314 314 314 313 313 312 313 311 311 311 310
324 323 322 321 320 319 318 317 317 317 315 313 311 309 307 302 306 312 311 310 306 304 308 316 316 316 314 314 316 313 311 310 305 301 300 301 301 301 303 303 307 317 316 315 320 317 316 316 316 316 316 316 316 316 315 315 315 314 315 317 317 316 317 316 315 315 314 313 313 313 312 313 312 312 312 312 311 312 313 312 312 313 310 310 309
324 322 322 320 320 319 318 317 317 316 316 314 313 313 311 309 299 300 305 305 302 299 299 302 306 310 315 310 308 305 304 301 298 299 299 299 299 299 300 300 301 303 308 318 317 316 315 315 315 316 316 315 315 315 315 315 315 315 315 316 316 316 316 315 313 314 313 313 312 313 313 312 311 312 311 311 310 310 312 313 313 311 310 310 309
323 322 321 321 320 319 318 318 318 317 315 315 314 313 313 311 311 302 299 301 301 298 298 298 299 301 305 310 314 311 304 299 298 298 298 298 298 298 299 300 301 302 305 310 315 314 314 314 314 315 315 314 315 316 315 314 314 314 314 314 314 315 313 312 312 312 312 311 311 311 311 311 311 312 312 312 312 311 312 312 312 311 311 310 310
322 321 322 321 321 321 320 319 318 317 316 315 315 314 313 313 311 311 310 301 300 298 298 298 298 297 297 296 298 301 300 298 298 298 299 299 299 299 299 299 300 303 308 313 313 313 313 313 313 313 313 312 312 313 312 313 313 312 312 312 311 310 311 312 313 313 312 312 311 311 311 312 312 312 312 312 311 310 310 309 309 310 309 309 309
323 322 321 320 319 318 318 318 318 317 317 316 316 315 315 314 313 313 312 313 313 307 303 298 296 300 297 295 296 297 297 298 298 299 299 300 300 301 303 307 301 301 306 314 314 313 313 313 313 313 313 313 313 313 312 312 312 311 311 310 311 311 312 313 312 311 312 311 310 310 310 310 310 309 308 308 309 309 308 308 308 308 307 307 307
324 325 324 323 319 319 319 319 319 319 318 318 318 318 318 318 317 316 314 313 312 311 311 312 303 296 303 301 296 296 296 297 298 298 299 300 301 302 305 315 314 314 314 315 314 313 313 312 312 313 313 312 312 312 311 311 312 311 311 311 310 310 311 311 311 311 311 311 310 310 310 310 309 309 309 308 307 307 307 307 307 307 307 307 307
324 324 324 323 320 320 320 319 319 318 319 320 320 319 319 317 316 315 314 315 313 313 312 310 311 309 302 296 295 296 296 296 297 298 299 300 302 305 314 313 313 313 313 314 313 313 313 313 312 312 312 312 312 311 311 311 311 311 311 312 311 311 310 310 311 310 310 310 310 309 309 309 309 308 308 308 308 307 307 307 307 307 307 306 307
324 322 321 321 321 321 321 320 321 321 321 320 319 319 318 317 317 316 315 314 313 313 312 312 313 314 314 315 309 299 297 298 298 299 300 301 304 314 314 313 313 313 313 312 312 312 312 312 313 312 312 312 312 312 312 312 312 313 312 311 311 310 310 311 311 311 310 308 308 309 309 308 308 309 308 307 307 307 308 308 308 308 308 307 306
324 322 322 322 323 322 321 322 323 322 321 320 320 319 318 318 317 317 316 316 315 315 314 315 315 313 313 316 318 316 315 306 305 305 305 305 312 315 315 314 314 312 312 312 312 311 311 311 311 311 311 311 311 311 310 311 311 311 312 313 314 314 313 313 312 311 310 308 308 308 308 308 308 308 308 306 305 305 305 305 305 305 305 305 305
324 324 324 325 323 322 323 323 322 320 320 319 319 320 319 318 318 317 316 316 315 315 315 314 315 315 315 317 317 319 318 316 315 314 314 314 314 314 314 313 313 313 313 313 313 312 311 311 312 312 311 311 310 310 310 309 309 309 309 309 309 309 309 308 309 309 308 307 307 307 306 306 306 307 307 306 305 305 304 304 304 305 304 303 303
325 326 326 325 325 325 324 323 322 321 321 320 319 320 320 319 318 317 316 316 315 315 315 315 315 316 317 317 316 317 316 315 314 314 314 314 314 314 314 314 313 313 312 312 312 312 312 311 311 310 310 310 310 309 310 310 309 309 310 309 309 308 308 308 308 307 306 306 306 306 306 305 305 305 305 305 304 305 305 305 305 305 304 304 304
326 327 329 326 326 326 325 324 322 321 321 321 321 320 319 319 319 318 318 318 317 317 316 316 316 314 311 307 303 310 317 315 315 315 315 314 314 314 314 314 314 314 314 313 313 312 312 311 311 310 310 310 311 310 310 310 310 311 311 310 310 309 308 308 308 308 307 307 306 305 305 306 306 306 305 306 306 306 306 305 305 305 304 304 304
326 327 327 327 328 327 325 323 322 324 322 322 320 320 321 321 320 319 320 319 319 317 317 316 315 312 305 299 298 303 315 317 316 316 316 315 315 315 315 315 315 315 314 313 313 313 312 312 311 311 311 311 310 310 309 309 309 309 309 309 310 309 309 308 308 308 307 307 306 306 306 306 307 307 307 305 305 305 304 304 304 304 304 305 304
328 327 328 328 327 327 325 324 324 323 322 321 320 322 322 321 320 321 321 320 319 318 318 317 317 315 312 306 308 309 316 317 318 316 315 316 316 316 315 315 314 314 314 314 314 314 314 312 311 311 311 310 311 311 310 309 309 309 309 309 309 309 309 308 307 307 307 307 307 308 308 308 307 306 305 305 305 305 304 304 303 303 303 303 303
328 329 329 328 328 329 327 325 324 323 322 323 322 323 324 322 321 321 321 321 320 319 318 318 318 317 314 311 311 315 317 317 316 316 316 316 315 315 314 314 313 313 313 313 313 313 313 312 310 309 310 309 309 309 309 309 309 309 310 309 309 309 309 308 308 307 307 308 308 307 306 306 306 306 305 305 304 303 303 303 303 302 302 301 302
327 328 327 327 328 327 326 326 325 324 324 324 323 324 324 321 320 320 320 320 321 319 318 319 320 318 316 315 317 318 317 317 317 317 317 316 315 314 314 313 313 313 312 312 312 312 312 311 310 310 309 308 308 308 308 308 308 309 310 311 312 309 309 308 308 308 309 308 307 306 305 305 305 305 304 304 305 305 304 304 304 302 302 302 302
327 327 327 326 327 327 326 325 327 325 325 324 323 323 324 321 320 321 321 320 322 320 319 319 320 318 318 317 317 317 317 317 318 317 317 316 315 314 314 313 312 312 312 311 311 311 311 310 310 309 308 307 306 306 306 306 307 307 307 307 309 310 309 307 307 308 308 308 307 306 305 305 305 305 305 305 305 305 305 304 304 303 303 303 302
325 326 326 327 326 326 326 326 326 324 324 324 323 323 323 322 321 321 323 321 321 322 319 319 319 319 318 318 319 318 317 317 317 317 317 317 316 315 313 313 312 311 311 311 311 310 310 309 308 308 306 305 305 305 305 305 305 305 305 304 304 304 305 307 308 308 307 307 307 306 306 305 306 306 306 305 305 305 305 304 303 303 304 303 303
322 323 323 324 324 324 325 325 325 326 324 323 323 323 323 323 322 321 321 322 322 321 319 319 319 319 319 318 319 318 318 318 318 318 318 317 315 314 314 313 312 311 311 310 310 309 308 307 307 306 306 306 306 305 304 303 303 302 302 302 302 302 302 301 306 306 307 307 307 307 307 306 307 306 305 305 305 305 304 303 304 303 303 303 303
319 320 320 320 320 321 321 323 324 324 323 323 322 323 322 323 322 321 321 321 322 321 320 319 318 318 318 319 319 318 319 318 318 318 317 317 315 314 314 313 312 311 311 310 309 308 307 306 306 306 305 306 305 305 304 303 302 302 301 301 300 297 295 297 302 305 302 306 306 307 308 307 307 306 305 305 305 305 305 305 304 304 304 304 303
318 319 319 320 321 320 321 321 322 323 322 322 322 322 322 323 322 322 321 321 321 321 321 320 319 318 318 318 317 318 318 318 317 317 317 316 315 314 314 313 312 311 311 310 309 307 306 306 305 305 305 305 304 305 304 303 302 302 301 301 296 294 294 297 299 299 303 307 307 307 307 306 306 306 305 305 305 305 305 304 304 304 303 303 303
318 318 318 319 320 320 319 320 320 321 321 321 321 321 320 321 321 321 320 320 320 321 321 320 320 319 318 318 318 318 318 319 318 318 317 315 315 314 313 312 312 311 310 309 308 306 306 305 305 305 305 304 303 303 302 302 302 301 297 294 293 292 292 295 302 295 296 300 306 306 305 305 305 304 303 303 304 305 305 304 304 303 303 303 302
Wind_Speed
4 4 4 6 6 8 7 7 8 8 9 9 9 8 7 7 7 7 5 6 6 7 7 7 7 7 6 7 7 7 7 6 6 6 5 6 6 6 6 5 6 6 5 5 3 3 4 5 5 4 2 3 3 2 2 2 0 0 1 2 2 3 4 4 4 4 1 1 1 0 1 2 1 2 3 3 3 4 4 3 2 1 1 2 3
4 4 5 5 6 5 6 5 4 4 7 9 9 7 7 6 6 6 7 7 7 7 7 7 7 7 7 7 7 7 7 7 6 5 6 6 7 4 5 6 6 7 5 5 5 4 4 5 5 5 3 4 3 3 3 2 1 0 0 1 2 3 4 4 3 1 3 2 0 0 1 1 2 2 2 4 5 5 4 3 2 2 1 1 2
4 4 5 6 7 6 5 6 4 4 5 4 6 6 6 7 6 7 7 6 6 7 6 7 7 7 7 7 8 7 7 7 6 6 6 7 7 6 5 6 7 7 6 7 7 5 4 4 5 4 2 3 3 3 3 3 1 1 1 1 2 1 3 3 3 2 2 1 1 0 1 1 1 1 2 3 3 3 4 5 3 3 3 3 3
4 5 5 6 6 6 6 5 7 6 5 4 5 5 5 5 6 7 8 6 7 6 7 7 6 7 7 7 7 7 7 7 7 7 8 8 7 8 7 7 7 6 6 6 6 5 6 5 5 5 3 3 4 4 3 2 2 2 2 1 1 1 1 1 2 2 2 1 2 0 1 1 2 2 1 0 2 3 3 3 3 3 3 4 5
3 4 5 5 5 5 6 6 7 7 8 5 5 5 6 6 5 6 6 7 7 6 6 7 7 7 7 8 7 7 7 7 7 7 7 7 8 8 8 7 7 7 7 7 6 6 6 6 7 4 3 4 4 4 3 5 3 2 2 1 1 0 0 1 1 1 1 3 3 1 2 1 1 0 2 2 2 2 3 3 4 3 4 4 4
3 3 3 4 4 5 6 6 7 7 6 6 5 6 6 6 7 6 6 7 7 7 7 6 7 8 8 8 8 8 7 7 8 8 8 7 7 7 7 7 7 7 7 7 7 7 7 7 7 5 5 6 6 4 4 4 2 3 3 2 1 1 1 0 1 1 2 2 2 3 3 3 3 1 2 4 3 2 1 2 3 3 2 5 7
3 2 3 4 4 4 4 5 5 6 6 6 6 6 6 7 7 7 5 5 6 7 6 7 7 7 8 8 8 8 8 7 7 8 8 7 8 7 7 7 7 6 6 7 7 7 7 7 6 6 7 7 6 6 5 4 4 4 4 3 3 3 3 2 2 1 2 1 1 2 2 2 2 3 2 3 1 1 1 1 2 3 4 5 6
3 3 3 3 4 5 4 4 4 4 4 4 5 6 6 6 6 6 5 5 4 4 5 6 6 6 6 7 8 7 7 7 7 7 7 7 7 7 7 7 7 6 6 6 6 7 7 7 6 6 7 7 6 5 5 5 4 4 3 3 3 4 3 3 2 3 3 2 2 4 2 2 2 2 3 2 0 1 2 1 1 3 4 5 5
4 3 3 3 3 4 4 4 3 4 5 5 6 5 5 5 5 5 4 4 4 4 3 3 4 5 6 7 7 7 7 7 6 6 8 8 7 8 8 8 7 7 7 7 6 7 7 6 6 6 7 8 9 7 7 5 4 5 5 4 4 3 3 3 3 3 4 4 5 4 4 4 3 3 4 2 1 2 1 1 1 4 5 5 6
4 5 5 5 5 5 5 5 4 2 3 5 4 3 3 3 4 4 4 4 4 5 5 4 3 4 5 6 6 6 7 6 7 13 11 8 8 7 7 8 8 8 8 7 6 6 7 6 6 11 11 11 10 10 9 9 8 5 6 6 5 4 4 4 4 4 4 5 6 5 4 4 4 4 5 3 2 3 2 2 3 4 6 7 7
4 5 5 5 5 4 4 4 4 5 5 4 4 4 5 5 6 6 6 5 6 5 5 5 5 5 5 5 6 6 6 6 12 13 13 14 9 8 8 8 8 8 7 8 8 8 7 6 5 7 9 10 9 11 9 9 8 6 6 5 5 5 4 5 5 4 5 6 5 5 6 6 5 4 4 3 3 2 2 3 4 5 5 4 5
3 4 4 5 6 6 6 5 5 5 5 4 5 5 6 6 6 6 6 6 5 4 6 6 5 5 4 4 5 5 5 8 13 13 14 14 13 8 7 7 8 8 8 9 8 8 7 6 5 4 5 6 5 7 9 10 8 7 7 6 5 3 2 3 5 5 5 5 5 2 2 2 2 2 1 1 3 3 3 2 4 4 2 5 5
3 3 4 4 5 6 6 6 6 5 5 5 4 5 6 6 6 6 6 6 5 6 6 5 5 4 5 5 6 4 4 6 10 12 13 14 15 13 8 9 8 9 9 9 9 9 7 6 6 5 5 11 8 7 7 6 8 9 12 12 11 10 8 7 3 3 4 4 4 4 3 2 2 2 1 0 2 2 2 2 3 4 6 7 6
4 3 3 3 4 4 6 6 6 6 6 6 6 4 4 5 6 5 6 6 6 6 5 6 4 4 4 4 5 4 4 5 7 9 11 12 13 11 8 8 9 10 10 10 8 9 9 8 6 6 6 8 8 9 7 7 7 8 6 6 6 8 9 8 6 6 4 1 1 3 1 1 2 1 2 2 2 3 2 5 5 7 6 7 7
4 4 4 4 3 4 5 5 6 7 7 5 5 6 5 5 6 5 5 5 6 6 6 6 6 5 4 3 4 4 4 3 4 5 7 10 11 8 6 6 6 7 8 8 9 9 9 8 8 7 9 8 10 11 11 8 8 6 6 6 6 5 4 4 4 3 3 3 3 2 1 2 3 3 2 1 1 2 6 9 9 9 11 11 9
4 4 4 4 4 4 4 5 6 8 8 6 5 5 5 5 6 5 6 5 5 4 5 5 6 6 4 4 4 5 4 3 2 2 2 4 4 4 6 6 6 6 7 7 8 7 8 8 7 7 8 7 14 17 13 10 9 9 9 7 7 6 6 6 6 5 5 3 2 2 0 1 2 1 1 4 6 8 9 8 7 8 10 10 8
3 3 3 3 3 4 4 5 6 6 6 8 8 7 6 6 6 5 6 5 5 5 5 5 4 5 4 4 4 4 4 2 1 1 1 2 3 3 5 5 6 8 9 9 9 7 6 7 8 7 10 11 14 17 17 17 11 10 9 9 7 6 6 5 7 9 9 8 8 8 6 7 7 7 8 8 6 6 7 8 7 6 8 9 7
2 2 2 3 4 4 4 5 5 6 6 6 7 8 7 6 6 5 7 6 6 6 5 5 5 5 5 5 4 4 4 3 4 3 2 4 5 4 4 5 7 8 9 8 5 3 4 11 11 8 10 10 16 18 19 15 12 11 11 11 8 7 6 4 4 6 9 10 10 10 10 12 14 14 12 11 9 4 1 7 6 6 6 7 9
1 2 3 3 4 4 4 4 4 5 5 6 6 7 8 8 7 6 6 7 7 6 6 6 5 3 2 3 5 5 5 3 3 3 4 4 4 3 4 4 6 6 5 4 2 3 6 8 11 9 8 13 19 19 21 17 14 12 12 10 9 9 6 5 6 7 5 6 6 7 8 9 8 8 10 14 13 10 6 4 3 5 7 8 11
2 0 1 3 3 4 4 4 4 4 5 6 6 6 6 7 7 7 6 6 6 6 6 6 4 2 2 2 2 3 3 4 4 4 5 5 6 3 3 5 7 9 8 7 9 8 7 6 9 13 12 13 19 21 21 20 13 10 10 10 10 10 6 6 6 7 8 8 7 8 7 7 8 8 8 9 10 10 8 6 5 4 8 6 5
1 1 1 2 3 4 4 4 5 5 5 5 5 6 5 6 6 6 5 5 7 3 1 3 5 3 4 4 4 4 5 6 7 9 8 6 6 7 4 8 9 8 8 7 5 2 7 8 7 12 16 18 20 18 15 15 15 13 11 12 12 13 11 9 11 12 9 9 9 8 7 7 7 8 8 8 8 8 8 9 8 6 5 5 6
2 2 2 3 3 3 4 5 5 5 5 5 5 5 5 4 4 5 3 3 3 4 5 4 4 5 5 5 6 6 7 9 7 8 8 8 6 8 9 9 7 7 7 7 7 9 12 7 4 5 9 12 13 16 17 18 18 9 10 16 19 17 11 9 8 7 7 7 7 7 8 8 8 8 8 8 7 7 8 8 8 9 7 6 4
2 3 4 3 4 4 4 5 5 4 5 6 5 5 5 5 5 5 5 5 6 6 6 5 5 5 5 6 6 7 8 7 12 8 6 6 7 8 10 9 7 6 7 8 10 5 4 5 5 6 11 16 20 19 17 19 14 14 23 22 20 20 14 10 9 8 8 8 7 7 7 8 8 7 7 7 6 7 7 7 8 8 8 8 9
3 4 4 5 4 5 4 4 4 5 5 6 6 5 6 5 5 5 5 5 5 6 5 5 6 6 6 7 7 7 7 7 12 15 9 9 8 8 7 6 2 1 2 3 7 8 7 7 9 13 16 18 20 9 16 21 16 25 24 25 23 17 11 11 10 10 9 8 8 8 8 6 7 7 6 6 6 7 8 8 8 8 9 8 9
4 5 5 5 5 4 4 4 5 5 5 6 6 6 6 5 6 5 5 6 6 6 6 6 7 6 7 7 7 8 7 8 8 10 13 12 12 14 15 16 15 13 10 9 10 9 12 15 15 17 19 20 26 31 21 5 20 25 25 25 21 14 15 13 10 9 10 8 8 7 6 5 6 6 5 6 6 6 7 6 7 7 8 9 10
5 5 5 5 5 4 5 5 6 6 6 6 6 6 6 5 5 5 5 6 5 6 6 6 7 7 7 7 7 7 7 7 7 7 9 12 12 13 15 17 19 21 19 16 17 19 20 21 21 19 15 15 16 16 18 15 23 21 17 13 8 12 13 14 12 10 9 8 6 6 6 6 6 5 5 5 7 6 5 6 7 7 6 7 10
5 5 4 5 5 6 7 5 5 6 7 6 5 5 5 6 6 7 7 6 6 6 6 7 7 7 6 6 6 7 7 7 7 7 6 6 6 7 9 11 16 16 13 11 13 13 15 16 18 22 21 20 20 24 24 21 18 18 17 14 12 9 9 11 12 11 9 8 7 7 6 5 5 6 6 6 7 5 5 6 7 5 6 6 8
5 5 5 5 5 6 6 8 7 5 6 6 6 5 6 6 6 6 6 5 5 6 6 6 6 6 6 6 6 8 8 7 7 6 7 7 7 8 9 9 9 9 10 9 9 9 11 13 15 10 11 12 12 10 12 13 14 14 10 7 9 8 11 16 13 9 8 8 7 7 6 6 6 5 5 6 5 5 4 5 6 5 3 5 7
5 5 5 5 6 5 5 5 6 5 5 7 8 6 5 5 6 6 7 5 4 4 6 7 7 6 6 7 8 9 7 8 6 7 10 11 9 8 9 9 9 10 10 11 10 8 9 12 12 12 12 12 11 12 12 13 12 10 9 9 8 5 5 6 8 8 6 8 8 7 6 6 6 5 6 6 6 5 5 7 6 8 6 8 7
5 5 5 5 6 6 5 5 5 5 5 6 6 7 12 14 9 6 6 11 16 14 9 7 6 6 9 8 7 8 9 6 9 15 15 16 16 16 15 14 13 11 12 13 10 12 11 12 10 10 10 10 10 9 9 11 11 10 9 7 7 6 5 6 6 7 7 7 6 7 6 6 6 6 6 6 5 5 5 6 5 4 7 6 6
4 5 5 6 6 6 5 5 5 5 5 5 5 6 7 10 15 16 14 11 13 15 15 15 15 12 9 9 9 13 12 12 14 14 15 16 16 17 17 16 15 14 11 12 12 11 10 11 9 8 8 9 9 9 10 10 10 9 8 6 6 6 6 6 5 6 7 7 7 6 6 7 6 6 6 6 6 5 5 4 5 5 6 5 6
5 5 6 6 7 6 5 5 5 4 5 5 6 6 6 10 10 13 14 15 15 16 15 15 14 13 12 10 8 7 11 14 14 15 15 16 16 16 16 16 15 15 12 12 14 10 9 9 9 8 8 9 9 9 9 9 9 8 7 7 6 4 5 5 4 6 7 7 7 7 7 6 5 5 5 6 6 6 5 5 5 6 6 6 6
7 6 6 7 7 7 5 4 4 4 5 5 5 4 4 5 8 7 9 12 16 15 15 14 14 15 15 15 13 11 10 10 14 15 16 16 17 16 17 17 16 13 13 13 10 9 8 8 7 7 8 8 8 8 7 7 7 6 6 6 5 4 5 4 5 7 6 7 7 7 6 5 6 6 6 5 6 6 5 5 4 5 5 6 5
7 6 5 5 6 5 5 4 4 5 5 5 5 4 4 4 4 5 6 6 8 11 13 15 13 12 14 13 11 11 11 12 13 14 15 15 15 16 15 14 17 16 13 9 8 8 7 8 8 7 7 7 6 6 5 5 6 6 6 5 5 5 5 5 7 7 5 5 6 6 6 5 5 6 6 5 5 5 5 4 4 4 4 4 5
6 9 11 6 4 4 4 4 5 5 5 5 4 4 4 4 4 4 4 5 5 5 4 5 10 12 9 8 10 11 11 11 11 11 12 12 13 13 13 11 10 9 10 8 7 7 7 7 7 7 6 7 5 5 5 5 5 6 6 6 5 5 5 5 5 6 6 6 6 6 6 6 5 5 5 5 5 5 4 4 4 4 4 4 5
7 6 6 6 5 4 4 5 5 5 5 4 4 4 4 4 5 5 4 5 4 4 4 4 4 6 11 10 10 10 11 10 10 11 11 12 11 12 10 8 8 7 7 6 7 7 7 7 7 6 6 6 5 5 5 5 5 5 4 5 5 5 5 5 5 6 6 6 6 7 7 6 6 6 6 6 6 5 4 4 4 4 4 4 4
7 7 5 4 4 4 4 5 5 5 5 4 4 4 4 4 5 5 5 4 4 4 4 3 4 6 6 6 7 10 11 12 12 13 13 12 12 9 6 7 7 7 7 6 6 6 7 6 6 6 6 6 6 6 6 6 5 6 6 5 5 5 5 5 5 5 6 6 5 5 6 6 5 5 6 6 5 5 4 4 5 5 4 4 4
6 6 5 5 5 5 5 5 5 7 5 4 4 4 4 4 4 4 4 5 5 4 4 4 5 4 5 4 5 5 7 9 12 11 10 9 8 7 6 6 6 7 7 6 6 6 6 5 5 6 5 6 6 5 6 5 5 5 6 5 5 6 8 7 7 6 6 5 5 5 5 5 5 5 5 6 5 4 4 4 4 4 4 4 3
5 8 10 9 6 5 4 5 5 5 4 4 4 4 4 4 4 4 4 4 4 4 4 4 4 4 4 2 3 3 6 5 5 5 5 5 5 5 6 6 6 6 6 6 6 6 6 6 5 5 5 5 5 5 5 5 5 5 5 5 5 4 5 5 5 5 5 5 4 4 5 4 4 4 4 5 4 4 4 4 4 3 4 4 3
6 6 7 9 6 6 5 5 5 5 4 4 4 3 4 4 4 4 3 4 4 4 3 4 4 3 2 2 3 4 5 4 4 4 4 4 5 4 5 5 5 5 6 5 5 5 6 5 5 5 5 5 5 5 4 4 4 4 4 4 4 4 4 3 4 5 5 4 5 4 5 5 4 4 4 4 4 4 4 4 4 3 3 3 3
5 6 7 6 7 6 6 5 5 4 4 4 3 4 4 3 3 3 3 4 4 3 4 3 3 2 2 2 2 3 5 5 4 4 4 4 4 5 5 4 5 5 5 5 5 4 5 5 4 5 5 4 4 4 4 4 4 4 4 4 4 4 3 3 4 5 5 5 5 5 5 5 4 5 5 4 4 4 4 4 4 3 3 3 2
8 7 6 5 6 5 5 5 5 6 5 5 4 4 3 3 3 3 3 3 3 3 4 3 2 2 2 3 5 6 6 4 4 5 4 4 4 4 4 4 3 4 5 5 5 5 4 4 4 4 5 4 4 4 4 3 3 3 3 4 4 4 4 3 3 4 5 5 5 5 5 5 5 5 6 5 4 4 4 4 3 3 2 2 3
7 6 6 6 5 5 6 5 5 5 5 5 4 4 4 4 3 3 3 3 3 3 3 3 2 3 3 2 5 6 5 4 5 4 4 4 4 4 4 3 3 3 3 3 3 4 4 4 4 3 3 3 3 3 4 4 3 3 3 3 3 4 4 4 4 4 4 5 5 5 5 5 5 5 5 4 4 4 4 3 3 3 3 3 3
7 6 6 6 5 5 5 5 5 4 4 5 5 5 5 4 3 3 3 3 3 2 3 2 2 2 2 1 3 4 4 4 4 4 4 4 3 3 3 3 3 3 3 3 3 3 4 5 4 3 3 2 2 3 3 2 2 3 3 3 2 3 3 4 5 5 5 5 6 6 5 5 5 5 5 5 4 5 4 3 3 3 3 3 3
7 6 6 6 5 5 5 4 4 5 5 5 5 4 5 4 4 4 4 4 3 3 2 2 2 3 3 2 3 4 4 4 3 4 4 4 4 3 3 3 3 4 3 3 2 3 4 4 4 4 4 3 2 3 3 2 1 1 1 2 2 2 3 4 4 5 5 6 6 6 5 6 5 5 5 5 4 4 4 4 4 4 4 3 4
7 6 6 6 6 5 5 5 5 5 5 5 5 5 5 4 4 4 4 4 4 4 4 3 3 3 3 3 3 4 4 4 4 3 3 3 3 3 3 3 3 3 3 3 3 3 3 4 4 4 4 3 3 3 2 2 2 2 1 0 1 1 1 3 4 5 5 6 6 6 6 5 5 5 6 5 4 4 4 4 3 3 3 3 3
7 7 7 6 6 6 6 5 5 5 5 5 5 6 5 5 5 5 5 5 5 4 4 4 4 3 3 4 4 4 4 4 4 4 4 4 3 3 4 4 4 4 3 3 3 4 4 3 3 4 4 4 3 3 2 1 1 1 1 1 1 1 2 2 4 5 5 5 6 6 6 6 6 5 6 5 4 4 4 4 4 4 3 3 3
7 7 7 7 7 6 6 6 6 8 6 6 6 6 6 5 5 5 5 5 5 5 4 4 4 3 3 4 3 4 4 4 4 4 4 4 4 4 4 5 5 4 4 4 4 4 4 4 4 4 4 4 3 3 2 1 1 1 1 1 1 1 2 2 3 3 4 4 5 6 7 6 5 5 5 5 5 5 5 4 4 3 4 3 3
7 7 7 6 6 7 7 7 6 6 7 7 6 6 5 5 6 5 5 6 5 5 5 5 5 4 4 4 4 4 4 4 4 4 4 4 5 5 5 5 5 5 5 5 4 5 4 4 4 4 4 4 3 3 3 2 2 1 2 1 2 4 5 4 3 4 6 5 4 5 5 5 6 6 5 5 5 4 4 5 5 5 4 3 3
7 7 6 6 6 6 6 6 6 7 6 5 6 6 5 5 5 6 6 6 5 6 5 5 6 6 5 5 5 5 5 5 5 5 5 5 5 5 5 5 5 5 5 5 5 5 5 4 5 4 4 3 3 2 2 2 2 2 2 2 3 5 5 6 6 9 7 5 5 5 5 5 5 5 5 4 4 5 5 5 5 4 4 4 3
6 6 6 6 6 6 6 6 6 6 6 6 6 5 6 6 5 5 5 6 6 6 6 6 6 6 6 6 6 6 6 6 5 5 6 6 6 6 6 6 6 5 5 5 5 5 5 5 4 4 3 3 3 2 2 2 2 2 2 3 3 4 7 8 6 8 8 6 5 5 6 6 6 6 5 4 4 4 5 5 5 4 4 3 3
Wind_Direction
206 219 197 202 205 209 206 206 210 207 213 215 213 207 204 208 209 212 207 214 206 206 204 205 206 205 205 212 217 221 220 222 217 214 214 226 229 232 238 212 223 236 236 253 241 243 239 251 261 259 248 263 271 282 286 302 149 130 178 178 188 178 172 179 211 261 270 150 238 188 212 295 267 355 344 348 357 356 358 358 16 87 158 217 207
221 225 212 206 213 212 214 209 204 196 202 210 210 202 199 201 208 210 213 215 209 211 211 208 205 204 206 208 214 215 216 219 213 203 209 223 232 221 228 215 221 238 227 245 243 231 233 242 258 264 241 251 272 272 272 266 251 233 165 181 199 186 196 180 197 232 279 308 344 312 197 300 323 357 1 345 350 349 347 359 5 50 79 95 140
211 212 222 218 218 220 218 219 200 208 225 218 218 216 207 199 194 209 218 223 210 215 215 216 213 209 212 214 213 214 212 213 212 204 213 217 226 228 224 215 218 229 230 235 243 236 238 235 251 255 239 251 257 262 266 269 295 270 221 209 224 188 187 188 153 200 198 248 241 273 123 283 290 315 326 328 330 345 341 359 18 75 73 74 85
210 212 223 227 220 219 223 227 232 229 225 233 238 238 246 239 210 206 211 215 220 213 214 214 213 212 216 220 216 218 217 214 216 207 212 213 219 229 226 222 221 222 226 236 240 234 234 240 247 237 221 239 252 251 253 271 271 260 258 272 279 250 201 196 211 215 170 189 171 220 296 294 201 215 225 33 20 35 31 41 44 49 56 62 72
220 221 231 235 235 225 233 229 233 235 240 235 239 242 239 244 248 229 215 214 215 211 209 207 208 206 211 214 218 220 222 221 223 224 217 215 217 223 224 223 224 223 220 228 234 226 226 224 235 212 184 217 242 244 239 244 234 231 247 226 239 45 6 330 350 13 322 312 318 326 332 271 256 276 47 36 47 64 54 55 48 42 59 62 78
243 255 248 253 254 249 246 240 237 234 234 233 231 238 244 242 244 249 230 221 215 211 209 201 203 209 212 216 215 221 221 223 225 229 226 215 216 217 217 217 222 221 220 222 226 223 219 219 222 191 183 200 222 227 229 229 214 218 221 212 175 162 167 91 41 22 348 314 325 332 344 353 348 357 32 31 26 31 97 94 71 53 72 74 54
281 261 270 266 273 262 255 252 253 247 244 243 239 232 234 234 234 237 236 241 228 218 214 212 211 209 214 211 217 219 221 220 223 226 229 226 221 219 217 219 222 219 219 220 215 217 220 222 210 188 195 204 211 208 202 205 209 210 203 190 179 182 165 171 159 229 261 280 322 339 324 308 311 321 324 353 26 195 220 185 124 76 56 77 82
314 293 277 274 279 286 274 259 254 253 244 229 231 236 240 244 242 241 234 234 251 251 234 218 213 206 213 217 220 220 217 223 222 225 226 223 217 219 221 221 222 220 222 217 213 211 215 217 205 194 201 204 205 201 188 195 201 200 201 184 174 172 171 168 188 217 214 215 282 288 236 276 251 249 260 286 308 141 85 6 137 133 92 63 74
350 4 352 335 329 318 313 299 283 259 255 244 240 242 250 260 263 257 243 244 240 236 243 262 239 219 217 219 225 220 221 219 213 208 222 224 219 222 220 223 220 217 217 220 211 209 214 213 204 200 208 211 212 207 200 198 185 194 194 171 168 180 177 185 203 229 245 246 260 238 245 242 228 271 287 266 268 294 40 54 104 124 115 84 53
23 21 23 18 13 9 359 1 348 321 265 264 266 271 266 272 279 278 275 258 248 243 239 227 235 237 234 228 223 223 223 225 223 221 214 217 215 219 218 223 221 220 218 216 217 210 216 208 217 215 212 214 213 211 210 207 204 191 177 175 182 181 187 205 216 229 251 265 263 271 269 258 266 259 258 255 184 149 155 151 159 132 103 84 70
39 31 16 1 9 11 12 5 352 351 337 304 302 299 289 280 268 269 271 273 273 273 267 254 240 231 230 234 233 225 226 229 232 231 226 224 218 216 217 221 218 216 209 210 219 214 211 208 208 222 216 213 211 199 192 193 190 179 174 169 172 171 186 208 221 230 260 266 272 272 267 274 269 241 227 257 274 257 196 155 147 148 137 122 105
40 34 24 10 359 359 356 356 357 344 338 345 339 313 282 269 269 265 266 266 255 248 253 254 252 250 244 238 234 235 237 238 233 232 228 225 226 222 216 222 218 214 210 212 213 211 204 199 198 197 212 201 202 193 183 184 168 163 165 159 146 130 123 218 233 243 242 247 261 262 309 304 352 321 316 323 313 321 320 230 158 165 120 90 103
47 33 23 22 4 354 351 347 344 338 333 333 338 336 327 292 261 256 256 254 254 255 253 251 249 241 242 249 252 246 248 249 246 243 241 236 231 229 225 220 214 215 212 210 209 208 203 192 192 190 206 207 201 180 167 164 154 164 129 112 98 84 68 60 35 266 241 245 248 257 251 276 271 235 270 21 37 316 354 26 96 105 93 82 82
44 25 14 18 1 357 349 340 331 325 324 329 332 329 316 310 311 275 256 255 252 254 250 254 247 243 241 246 254 262 256 274 271 261 251 247 245 236 241 229 224 218 218 210 205 205 200 197 188 195 191 195 171 162 132 135 133 117 83 82 88 78 78 79 80 79 68 167 180 226 180 241 284 322 340 359 336 310 97 100 103 106 99 104 111
15 4 357 347 349 358 347 332 318 317 317 314 322 317 311 305 300 307 300 265 246 242 248 261 262 261 257 245 249 252 252 263 298 292 268 253 249 243 243 240 231 234 229 220 207 198 200 200 199 193 186 179 176 161 155 141 136 121 107 95 86 91 78 59 65 70 73 75 79 73 254 262 252 260 279 289 144 100 118 120 118 110 105 102 89
350 339 344 344 347 341 332 323 316 313 308 303 299 296 300 298 300 301 297 291 273 250 247 241 254 262 254 244 249 258 257 263 289 329 311 278 252 230 221 225 223 226 236 232 225 211 200 194 195 188 162 189 178 162 154 143 140 127 118 112 109 99 77 69 70 80 87 90 82 80 56 285 296 262 220 145 112 106 104 106 108 112 109 106 111
319 326 347 344 340 334 326 314 309 303 303 306 303 297 287 282 280 278 281 277 277 264 245 239 235 237 229 227 232 250 257 221 195 260 302 174 164 205 223 229 231 230 231 227 225 217 201 195 192 183 174 182 176 157 151 148 145 136 128 126 120 100 99 97 84 81 82 82 87 85 89 89 88 87 81 82 103 121 126 116 117 125 111 105 102
313 343 342 346 339 332 327 318 314 315 314 306 304 305 298 284 280 272 265 269 268 264 258 245 226 215 221 235 231 259 273 201 201 221 223 198 197 197 208 221 232 233 238 236 239 262 269 223 201 186 182 172 163 159 158 153 149 142 139 132 123 114 116 119 101 86 79 75 74 79 79 78 77 71 67 63 50 26 169 123 133 116 100 111 115
28 352 342 345 337 331 328 321 329 325 322 315 309 302 296 295 294 288 277 260 259 255 253 246 230 185 177 218 252 266 276 266 237 250 253 222 211 205 208 214 236 243 237 219 140 189 233 256 241 228 205 173 162 164 165 161 158 149 144 126 123 128 139 137 118 105 91 79 66 65 54 59 61 65 63 60 59 54 38 57 106 116 113 119 123
167 160 342 345 340 343 344 335 337 335 326 324 317 303 303 304 298 291 285 267 245 236 237 229 192 108 49 46 28 349 330 327 331 345 332 284 245 222 203 193 220 227 223 213 227 227 242 228 216 211 214 187 173 171 171 160 153 137 134 135 133 135 145 122 111 105 96 90 81 76 73 67 67 64 58 58 56 55 52 50 39 80 113 111 115
141 73 29 12 4 355 353 355 345 336 329 326 321 329 330 319 309 302 292 284 257 245 267 107 102 85 54 38 23 21 359 345 348 359 353 336 302 242 190 225 221 217 212 212 222 255 259 235 231 211 194 184 185 173 153 134 139 150 153 150 141 139 135 121 117 108 102 100 93 87 80 72 69 67 62 61 59 55 59 53 54 36 61 95 108
139 79 55 32 23 15 2 7 1 342 340 343 340 345 345 343 340 335 331 354 21 83 80 60 65 68 53 37 29 19 6 9 0 347 356 335 311 268 258 245 227 210 212 205 200 216 225 232 243 231 182 170 163 164 158 150 148 138 127 123 126 127 120 115 110 100 94 91 88 85 83 78 71 65 62 57 53 56 55 61 62 65 52 34 44
110 85 58 43 36 26 17 7 353 353 354 352 349 353 354 3 11 14 11 40 57 50 53 69 78 62 48 40 35 29 21 18 14 355 1 350 311 271 255 274 266 227 208 211 225 231 49 38 39 90 157 167 174 165 155 150 139 134 132 132 127 124 119 111 105 101 93 91 85 75 75 80 80 76 71 67 61 62 62 60 59 64 66 65 66
71 65 59 49 41 32 17 1 356 4 2 2 2 359 5 7 22 34 35 42 51 57 47 44 54 57 53 43 36 29 27 28 29 23 23 27 35 47 58 58 42 152 49 42 37 51 55 65 79 86 91 67 33 357 170 154 146 140 134 129 126 119 112 106 101 102 97 90 87 87 84 83 89 88 81 85 83 80 79 72 70 69 70 65 56
76 72 62 50 43 37 25 19 10 6 5 10 14 11 8 12 32 22 46 58 61 65 57 55 61 59 55 53 44 39 30 35 35 34 41 50 63 72 71 68 60 63 66 58 72 77 82 69 66 85 85 78 82 69 9 8 128 134 129 129 125 122 118 111 104 99 98 98 96 95 94 89 93 99 104 97 91 81 78 71 69 70 76 74 65
85 74 68 58 43 35 33 22 19 16 16 8 8 31 28 15 36 38 44 53 56 65 66 65 65 62 60 54 52 46 38 35 37 35 43 56 58 63 79 86 89 87 90 93 91 89 85 82 73 57 56 82 88 83 89 61 25 33 44 50 86 111 116 114 112 108 103 106 104 106 108 107 96 96 92 86 76 69 79 77 69 50 50 63 62
86 74 71 66 55 47 50 40 26 23 16 7 3 4 29 35 36 38 42 56 59 67 68 70 67 64 67 59 54 49 42 38 38 34 22 31 40 52 61 75 86 91 92 94 98 97 93 92 98 98 95 68 66 84 89 77 55 33 24 17 8 19 79 95 108 110 115 112 112 106 102 94 93 85 74 75 73 60 68 86 80 67 67 69 77
84 77 70 70 65 58 57 50 46 39 32 23 13 357 4 26 41 35 26 32 65 67 74 75 75 81 77 74 67 63 57 42 26 24 28 43 54 56 64 67 64 72 83 85 87 95 98 89 75 64 74 84 78 62 73 81 89 99 90 54 25 20 58 79 80 87 92 103 103 100 93 94 88 84 74 66 62 50 43 73 84 73 40 85 78
96 85 78 72 66 63 61 57 58 55 56 52 46 34 6 358 25 44 28 8 26 84 97 83 77 67 72 73 80 70 62 49 33 51 57 52 55 65 67 70 77 74 81 88 90 76 78 75 79 84 87 86 85 93 97 92 82 70 70 74 78 43 14 44 82 86 100 99 102 103 102 93 87 79 85 75 64 61 51 78 66 86 73 75 83
95 83 74 70 69 64 56 51 48 60 64 64 68 63 50 50 38 54 47 26 47 42 50 77 78 89 78 64 64 87 91 100 81 68 67 67 64 64 64 61 64 75 74 72 79 80 69 69 66 78 85 89 89 82 77 94 102 102 99 92 84 76 76 78 85 96 92 96 98 101 98 97 90 91 82 84 74 61 44 69 72 73 88 83 84
92 92 84 79 78 72 69 63 59 58 58 64 60 74 79 54 45 49 56 55 55 54 56 59 62 61 82 91 62 65 84 79 71 67 64 63 64 62 58 56 56 53 48 78 65 69 70 76 73 67 72 82 84 84 90 90 92 95 88 82 87 100 101 101 103 103 98 98 97 94 95 94 97 94 93 87 90 82 77 65 85 74 79 83 85
102 93 93 95 87 78 69 75 72 71 60 65 72 79 81 88 68 39 50 60 57 58 58 57 56 58 59 72 98 83 72 78 77 73 69 65 63 62 61 60 56 56 46 76 82 72 68 77 75 69 71 73 71 76 79 88 94 100 106 104 96 98 104 98 100 100 100 97 97 95 94 95 91 88 87 90 88 85 81 79 74 86 83 77 78
116 109 111 111 108 101 86 77 68 60 66 63 55 46 54 66 87 88 52 58 66 64 56 54 57 55 51 45 52 87 98 86 81 80 80 77 73 70 67 61 56 51 72 70 74 72 72 71 69 68 63 66 68 70 71 77 86 85 94 101 100 89 87 90 95 90 88 93 95 93 94 87 91 87 82 82 88 89 82 81 77 75 84 86 81
121 120 124 120 108 99 90 84 81 74 67 71 71 61 54 55 77 86 103 98 70 56 50 45 41 49 48 51 65 68 64 67 73 79 80 81 81 80 79 73 65 53 62 78 73 83 77 71 67 67 65 67 68 72 75 74 79 88 87 84 87 83 79 87 88 90 90 83 84 85 85 84 88 96 88 83 79 85 81 79 85 94 81 86 92
125 129 128 112 79 97 96 91 87 84 76 67 65 62 57 54 62 66 68 77 76 75 56 33 39 47 52 50 55 67 70 70 69 74 76 79 82 81 74 71 64 53 53 54 66 71 76 77 77 69 67 72 69 74 76 75 74 76 81 86 81 82 86 77 79 88 89 90 88 86 87 92 85 84 98 99 97 87 90 88 78 78 94 90 93
135 131 124 115 102 98 90 94 86 90 91 83 80 72 71 71 73 70 67 66 71 81 66 50 47 50 65 60 62 72 71 67 68 70 72 71 75 82 83 77 76 70 70 66 78 76 75 78 82 80 82 81 76 70 66 67 63 66 60 77 84 83 86 89 87 89 83 85 89 93 89 79 88 95 89 82 84 92 90 92 88 83 81 83 76
139 132 115 115 115 102 101 100 98 97 92 88 83 85 84 81 76 77 71 73 78 72 84 83 78 63 58 62 72 72 79 80 73 68 66 66 68 72 83 88 92 88 82 85 84 82 78 71 75 81 77 81 72 72 72 73 73 76 76 71 78 82 79 80 88 93 90 87 80 82 87 94 94 96 100 99 91 87 88 86 87 79 77 82 96
130 133 130 134 121 115 109 108 110 105 95 93 87 92 96 85 83 81 86 91 91 93 85 83 80 76 83 72 76 90 83 76 70 61 54 53 58 70 74 83 81 88 93 85 80 85 86 77 75 83 83 82 80 76 76 73 70 69 73 71 69 73 86 89 83 78 78 83 88 91 94 95 97 97 92 94 97 91 77 71 74 82 73 64 66
128 136 135 129 125 123 124 119 110 110 104 99 107 113 104 98 87 74 73 74 78 73 77 71 78 88 82 73 61 52 73 57 65 70 63 60 59 69 83 82 88 89 88 87 90 87 90 90 88 87 82 82 82 80 83 82 79 72 73 75 73 72 76 85 84 83 89 91 94 94 95 90 87 83 90 95 88 89 86 81 71 70 80 73 68
137 141 137 135 127 131 128 130 125 118 120 119 109 104 107 99 92 96 93 92 86 84 84 87 89 79 46 41 83 89 85 83 88 93 88 78 79 74 80 89 90 93 95 89 85 88 90 91 90 90 85 85 89 90 86 88 86 89 80 74 82 82 79 92 108 108 107 110 104 101 100 97 88 84 75 76 87 81 85 81 77 72 71 84 87
140 141 144 143 142 138 137 134 131 130 129 128 122 115 115 112 112 109 98 94 95 100 92 94 85 43 20 360 353 87 115 115 106 98 94 99 96 93 87 96 107 101 94 94 96 95 100 101 99 97 94 94 97 99 101 99 98 93 96 101 96 94 93 91 102 110 112 111 113 110 108 106 111 108 103 96 93 90 82 82 79 75 80 75 85
149 151 143 143 146 144 141 146 148 151 146 141 138 141 136 131 124 117 111 100 107 103 110 95 76 70 26 51 110 113 107 104 106 102 101 101 103 100 98 93 85 103 117 120 124 121 116 108 105 109 113 115 111 107 105 98 97 99 104 104 107 107 102 100 102 111 118 114 114 116 116 116 114 105 105 110 104 96 90 80 81 79 77 86 85
151 147 147 148 153 157 158 151 149 143 147 151 152 157 154 145 146 144 121 117 109 116 125 117 102 96 87 48 102 104 95 110 115 112 112 115 105 100 106 105 107 106 111 120 124 123 119 113 104 96 106 110 115 122 120 123 118 110 104 110 115 120 120 121 118 114 115 116 116 119 122 124 120 114 113 108 101 94 91 92 86 76 72 68 73
152 147 150 154 154 157 147 147 155 154 153 162 162 164 163 159 158 142 144 134 131 134 136 121 120 103 106 68 102 105 113 112 116 126 125 114 115 111 113 115 118 116 116 122 122 123 118 115 110 102 89 89 84 78 91 98 119 119 116 110 113 126 130 133 138 142 138 131 126 125 125 121 121 120 115 117 119 117 120 112 102 91 84 77 76
150 149 149 152 160 157 154 164 159 154 162 165 165 176 175 170 165 163 157 154 158 152 150 142 138 122 129 141 143 133 135 131 137 138 135 130 128 126 128 130 134 131 127 123 124 125 120 118 120 122 116 96 82 87 92 85 61 81 112 122 124 138 166 166 158 150 143 133 134 135 134 136 130 125 126 132 136 131 124 118 111 104 92 80 79
155 153 156 158 166 163 160 165 167 163 171 171 170 178 178 173 180 173 170 173 171 164 161 159 154 155 151 154 159 158 154 156 152 147 144 140 133 134 144 141 135 135 134 133 131 129 129 133 133 129 123 113 103 92 88 78 78 75 57 341 101 117 129 138 140 146 153 144 140 139 137 130 132 135 142 137 129 119 114 108 103 97 101 97 87
159 161 164 168 170 174 168 163 159 172 180 180 180 180 177 179 180 182 183 184 180 171 167 167 168 178 165 170 172 170 175 174 170 167 155 145 140 145 147 146 139 134 132 128 127 129 135 130 127 122 120 118 110 100 94 103 95 85 56 43 47 84 98 139 159 159 151 151 141 138 143 141 141 142 137 128 124 123 122 120 127 122 118 106 105
165 164 167 170 167 166 166 167 185 187 186 186 192 189 180 173 172 183 183 185 185 179 173 174 180 177 170 178 181 178 184 183 176 168 160 157 154 160 155 154 153 147 138 135 132 132 131 134 131 129 124 124 122 122 126 100 81 61 57 51 56 52 101 116 136 137 140 143 146 140 139 141 138 135 135 137 137 140 136 137 134 130 128 126 117
165 167 165 166 171 169 164 178 188 192 193 191 185 193 184 184 181 180 179 184 186 190 186 179 181 182 192 181 171 185 191 183 180 174 174 164 156 162 167 163 152 150 149 145 142 138 133 133 137 134 130 134 142 137 130 130 135 128 123 117 99 107 121 132 149 141 142 139 136 133 129 131 138 137 136 139 140 142 136 135 141 139 137 133 131
169 166 167 170 174 177 176 182 192 202 199 188 188 187 181 187 188 188 184 183 184 189 199 190 188 188 185 180 182 182 182 191 190 183 175 170 168 163 165 162 161 160 157 149 146 141 139 138 140 140 141 143 137 121 132 139 156 153 145 130 119 129 135 139 145 147 150 153 148 144 139 135 134 136 137 138 141 138 141 145 147 145 143 140 128
168 169 170 173 177 172 163 165 176 183 175 171 177 181 184 192 199 193 189 187 192 197 193 193 194 185 192 193 183 178 186 191 189 183 177 172 169 169 168 167 167 159 151 144 141 143 146 148 150 149 146 141 138 143 159 172 165 151 122 114 120 146 149 152 153 160 152 148 141 139 141 144 139 136 138 141 141 144 145 148 151 147 147 138 130